Location: Newark
(46.7636°N, 1.8358°W)
Time: 19:55:11
(UTC+00:00)

Vanguard 1 Rocket - Pass Details

Date: 23 October 2019
Orbit: 651 x 4225 km, 34.3° (Epoch: 12 November)

Event Time Altitude Azimuth Distance (km) Brightness Sun altitude
Rises 07:10:59 0° 177° (S) 4,526 11.3 4.8°
Reaches altitude 10° 07:15:42 10° 153° (SSE) 4,162 11.7 5.6°
Maximum altitude 07:21:09 14° 125° (SE) 4,478 13.1 6.4°
Drops below altitude 10° 07:28:08 10° 98° (E) 5,638 13.2 7.5°
Sets 07:36:59 0° 80° (E) 7,483 13.0 8.9°
